This demonstration page uses our WeatherBlox Daily Observations layout. Learn more.

Hourly Observations for December 31, 2016

Temp ( °F °C ) Dew Point ( °F °C ) Humidity (%) Winds ( mph kmh ) Pressure ( in mb ) Visibility ( mi km ) Precip ( " mm )
12:54 am 00:54 Clear 33 0.6 24 -4.4 70 70 N 12 19 29.72 1007 10 16.0934 0 0
1:54 am 01:54 Clear 33 0.6 23 -5 66 66 N 13 20 29.73 1007 10 16.0934 0 0
2:54 am 02:54 Clear 30 -1.1 22 -5.6 72 72 NW 6 9 29.76 1008 10 16.0934 0 0
3:54 am 03:54 Clear 26 -3.3 20 -6.7 78 78 Calm 29.77 1008 10 16.0934 0 0
4:54 am 04:54 Clear 25 -3.9 20 -6.7 81 81 Calm 29.79 1009 10 16.0934 0 0
5:54 am 05:54 Clear 23 -5 18 -7.8 81 81 N 5 7 29.81 1009 10 16.0934 0 0
6:54 am 06:54 Clear 29 -1.7 23 -5 78 78 N 14 22 29.85 1011 10 16.0934 0 0
7:54 am 07:54 Sunny 28 -2.2 22 -5.6 78 78 N 12 19 29.88 1012 10 16.0934 0 0
8:54 am 08:54 Mostly Sunny 29 -1.7 20 -6.7 69 69 NNW 17 28 29.91 1013 10 16.0934 0 0
9:10 am 09:10 Mostly Cloudy 28 -2 19 -7 69 69 NNW 14 22 29.94 1014 10 16.0934 0 0
9:46 am 09:46 Partly Cloudy 28 -2 19 -7 69 69 N 18 30 29.97 1015 10 16.0934 0 0
9:54 am 09:54 Partly Cloudy 29 -1.7 19 -7.2 66 66 N 17 28 29.96 1014 10 16.0934 0 0
10:54 am 10:54 Mostly Sunny 30 -1.1 18 -7.8 61 61 N 13 20 29.98 1015 10 16.0934 0 0
11:54 am 11:54 Mostly Sunny 32 0 17 -8.3 54 54 NW 10 17 29.97 1015 10 16.0934 0 0
12:54 pm 12:54 Sunny 33 0.6 17 -8.3 52 52 NW 7 11 29.96 1015 10 16.0934 0 0
1:54 pm 13:54 Sunny 33 0.6 17 -8.3 52 52 N 5 7 29.95 1014 10 16.0934 0 0
2:54 pm 14:54 Sunny 35 1.7 17 -8.3 48 48 N 5 7 29.95 1014 10 16.0934 0 0
3:54 pm 15:54 Sunny 36 2.2 16 -8.9 44 44 Calm 29.95 1014 10 16.0934 0 0
4:54 pm 16:54 Sunny 32 0 16 -8.9 52 52 S 3 6 29.96 1014 10 16.0934 0 0
5:54 pm 17:54 Clear 28 -2.2 16 -8.9 60 60 Calm 29.96 1015 10 16.0934 0 0
6:54 pm 18:54 Clear 24 -4.4 16 -8.9 71 71 S 5 7 29.97 1015 10 16.0934 0 0
7:54 pm 19:54 Clear 23 -5 16 -8.9 74 74 S 5 7 29.99 1016 10 16.0934 0 0
8:54 pm 20:54 Clear 24 -4.4 17 -8.3 75 75 SSW 5 7 29.99 1016 10 16.0934 0 0
9:54 pm 21:54 Clear 23 -5 16 -8.9 74 74 SSE 5 7 30 1016 10 16.0934 0 0
10:54 pm 22:54 Clear 22 -5.6 17 -8.3 82 82 SE 3 6 30 1016 10 16.0934 0 0
11:54 pm 23:54 Clear 20 -6.7 16 -8.9 85 85 SSE 8 13 29.99 1016 10 16.0934 0 0

Powered by AerisWeather